[[{"header":{"parameterUnit":"m.s-1","parameterCategory":1,"la1":30.2992,"la2":30.254,"lo1":-89.0895,"lo2":-89.0443,"dy":0.0025,"dx":0.0025,"nx":19,"ny":19,"refTime":"2026-05-04T09:00:00:Z","depth":0,"parameterNumber":2,"parameterNumberName":"U-component_of_WINDS"},"data":[0,0,0,0.3393,0.3392,0.3353,0.3353,0.3312,0.3312,0,0,0,0,0,0,0,0,0,0,0,0.3411,0.3411,0.3393,0.3392,0.3353,0.3353,0.3312,0.3312,0,0,0,0,0,0,0,0,0,0,0,0.3411,0.3411,0.3411,0.3392,0.3353,0.3353,0.3312,0.3338,0,0,0,0,0,0,0,0,0,0,0.3375,0.3399,0.3411,0.3411,0.3392,0.3353,0.3353,0.334,0.3337,0.3335,0,0.3335,0,0.3323,0.331,0.331,0,0,0,0.3387,0.3401,0.3384,0.3411,0.3392,0.3353,0.3369,0.3338,0.3335,0.3331,0.3335,0.3333,0.3323,0.331,0.331,0.3316,0.3316,0,0,0.3389,0.3408,0.3387,0.3383,0.339,0.337,0.3368,0.3336,0.3341,0.3335,0.3332,0.3322,0.331,0.331,0.3316,0.3316,0,0,0,0.3399,0.341,0.3393,0.3385,0.3377,0.3369,0.3367,0.3342,0.3335,0.3331,0.3321,0.331,0.3309,0.3315,0.3316,0.3347,0,0,0,0.34,0.3415,0.3395,0.3406,0.3378,0.3359,0.3374,0.3337,0.3333,0.3322,0.331,0.3309,0.3315,0.3316,0.3346,0.3359,0,0,0,0.3412,0.3417,0.3413,0.3407,0.3391,0.3359,0.335,0.3336,0.3327,0.331,0.3309,0.3315,0.3316,0.3345,0.3357,0.3366,0,0,0,0.343,0.3443,0.3414,0.3425,0.3391,0.3379,0.335,0.3341,0.3329,0.3309,0.3315,0.3316,0.3344,0.3355,0.3364,0.3376,0.3383,0,0,0.3456,0.3447,0.3451,0.3425,0.3423,0.3384,0.3386,0.3358,0.3339,0.3325,0.3324,0.3346,0.3357,0.3365,0.3416,0.3422,0,0,0,0.3466,0.347,0.3465,0.3455,0.3434,0.3416,0.3386,0.3375,0.3362,0.3336,0.3352,0.3357,0.3361,0.3366,0.3371,0.3373,0.3319,0.3319,0.3319,0.3531,0.3506,0.3511,0.3481,0.3472,0.344,0.343,0.341,0.3387,0.3391,0.3387,0.3421,0.3427,0.3431,0.3433,0.3392,0.3392,0.3392,0.3392,0.3568,0.3568,0.3537,0.3532,0.3505,0.3499,0.3468,0.3452,0.3443,0.3422,0.3425,0.3405,0.3438,0.3438,0.3394,0.3394,0.3393,0.3393,0.3393,0.3607,0.3603,0.359,0.3572,0.3561,0.353,0.3522,0.3498,0.3475,0.3477,0.3469,0.3468,0.3464,0.3475,0.3475,0.3475,0.3475,0.3475,0.3475,0.3653,0.3637,0.3634,0.3612,0.3601,0.3585,0.3552,0.3541,0.3523,0.3505,0.3505,0.3482,0.3446,0.3437,0.3477,0.3477,0.3477,0.3476,0.3476,0.3699,0.3684,0.3679,0.3669,0.364,0.363,0.3599,0.3579,0.3566,0.3563,0.3538,0.3516,0.3504,0.35,0.3492,0.3544,0.3544,0.3544,0.3544,0.3731,0.3723,0.3711,0.3696,0.3679,0.365,0.3644,0.3618,0.3589,0.3579,0.3568,0.3556,0.3553,0.3543,0.3538,0.353,0.3591,0.3591,0.3591,0.3757,0.3746,0.3746,0.3717,0.3693,0.3672,0.3665,0.3648,0.3612,0.3592,0.3571,0.3569,0.3549,0.3544,0.3524,0.3517,0.3503,0,0]},{"header":{"parameterUnit":"m.s-1","parameterCategory":1,"la1":30.2992,"la2":30.254,"lo1":-89.0895,"lo2":-89.0443,"dy":0.0025,"dx":0.0025,"nx":19,"ny":19,"refTime":"2026-05-04T09:00:00:Z","depth":0,"parameterNumber":3,"parameterNumberName":"V-component_of_WINDS"},"data":[0,0,0,6.0941,6.0943,6.1042,6.1043,6.1179,6.118,0,0,0,0,0,0,0,0,0,0,0,6.092,6.0921,6.094,6.0943,6.1042,6.1043,6.1178,6.118,0,0,0,0,0,0,0,0,0,0,0,6.092,6.0921,6.0923,6.0944,6.1042,6.1043,6.1178,6.1099,0,0,0,0,0,0,0,0,0,0,6.1001,6.0992,6.0921,6.0923,6.0944,6.1042,6.1043,6.1095,6.1104,6.1139,0,6.1175,0,6.118,6.119,6.1191,0,0,0,6.0935,6.0984,6.1003,6.0923,6.0945,6.1042,6.0995,6.11,6.111,6.1151,6.1177,6.1182,6.1182,6.1191,6.1192,6.1425,6.1426,0,0,6.093,6.0942,6.0997,6.101,6.1,6.0992,6.0999,6.1106,6.1134,6.1177,6.1185,6.1185,6.1192,6.1193,6.1424,6.1425,0,0,0,6.0919,6.0939,6.0955,6.1005,6.1023,6.0995,6.1003,6.1129,6.1134,6.1186,6.1186,6.1193,6.1195,6.1422,6.1424,6.1509,0,0,0,6.0916,6.0932,6.0953,6.0961,6.1021,6.1078,6.1024,6.1126,6.1138,6.1186,6.1193,6.1196,6.142,6.1423,6.1503,6.1546,0,0,0,6.091,6.0932,6.095,6.0961,6.1005,6.1076,6.1086,6.1128,6.1139,6.1191,6.1197,6.1419,6.1423,6.1498,6.1537,6.1611,0,0,0,6.0908,6.1022,6.0951,6.1079,6.1004,6.1129,6.1085,6.1177,6.1232,6.1194,6.1421,6.1424,6.1496,6.1532,6.1605,6.1674,6.1705,0,0,6.1059,6.1041,6.1115,6.1054,6.1195,6.1112,6.1264,6.1301,6.1293,6.138,6.1386,6.1505,6.1537,6.1609,6.1871,6.1895,0,0,0,6.1166,6.122,6.1254,6.1309,6.1342,6.1373,6.1386,6.1399,6.1473,6.1342,6.1551,6.1569,6.1611,6.1644,6.1664,6.1699,6.144,6.1439,6.1439,6.1397,6.1383,6.1504,6.1502,6.1555,6.1568,6.1608,6.1628,6.1596,6.1646,6.1672,6.1832,6.1871,6.1886,6.1923,6.1707,6.1708,6.1708,6.1708,6.1616,6.1689,6.1646,6.1748,6.1732,6.1816,6.1831,6.1807,6.188,6.1812,6.1848,6.1774,6.1913,6.1944,6.1714,6.1713,6.1713,6.1712,6.1712,6.1765,6.1797,6.1814,6.1891,6.195,6.1943,6.2017,6.1998,6.1981,6.2017,6.2041,6.2039,6.2035,6.203,6.203,6.2031,6.2031,6.2032,6.2032,6.1913,6.1929,6.1995,6.204,6.2072,6.2111,6.2124,6.2154,6.2182,6.2162,6.2162,6.2125,6.193,6.1881,6.2041,6.2039,6.2038,6.2037,6.2037,6.2139,6.2085,6.2188,6.222,6.227,6.233,6.2306,6.2368,6.239,6.2426,6.2382,6.2241,6.222,6.2204,6.2163,6.2386,6.2386,6.2386,6.2386,6.2265,6.2253,6.2353,6.2406,6.2455,6.2444,6.2556,6.2567,6.2569,6.2581,6.2546,6.249,6.2474,6.2463,6.2441,6.2402,6.2681,6.2681,6.2681,6.2402,6.2395,6.2496,6.25,6.2538,6.2569,6.2674,6.2734,6.2724,6.2693,6.2589,6.2577,6.2487,6.2459,6.2424,6.2391,6.232,0,0]}]]